When you browse on this site, cookies collect data to enhance your experience and personalize the content and advertising you see.
Visit our Privacy Policy to learn more. By continuing to use the site, you agree to this use of cookies and data.

Hourly Weather Wanparti

Today, 6 July, Monday

Time Temperature Precipitation Wind Pressure Humidity
00:00 +26°C° 0.4 mm 4 mps 718 mmHg 85%
01:00 +26°C° 0.4 mm 4 mps 718 mmHg 85%
02:00 +26°C° 0.4 mm 4 mps 717 mmHg 86%
03:00 +26°C° 0.6 mm 4 mps 717 mmHg 86%
04:00 +26°C° 0.6 mm 4 mps 717 mmHg 86%
05:00 +26°C° 0 mm 4 mps 717 mmHg 87%
06:00 +26°C° 0 mm 3 mps 717 mmHg 86%
07:00 +26°C° 0 mm 3 mps 718 mmHg 85%
08:00 +26°C° 0 mm 3 mps 718 mmHg 84%
09:00 +27°C° 0 mm 3 mps 718 mmHg 79%
10:00 +29°C° 0 mm 4 mps 718 mmHg 75%
11:00 +30°C° 0 mm 5 mps 718 mmHg 71%
12:00 +30°C° 0.4 mm 5 mps 718 mmHg 68%
13:00 +32°C° 0.4 mm 5 mps 718 mmHg 66%
14:00 +32°C° 0.4 mm 5 mps 717 mmHg 64%
15:00 +32°C° 1.8 mm 5 mps 717 mmHg 65%
16:00 +32°C° 1.8 mm 4 mps 717 mmHg 67%
17:00 +30°C° 1.8 mm 4 mps 717 mmHg 68%
18:00 +30°C° 0.6 mm 4 mps 718 mmHg 70%
19:00 +29°C° 0.6 mm 4 mps 718 mmHg 72%
20:00 +29°C° 0.6 mm 3 mps 719 mmHg 74%
21:00 +28°C° 0 mm 4 mps 719 mmHg 76%
22:00 +28°C° 0 mm 4 mps 719 mmHg 77%
23:00 +27°C° 0 mm 4 mps 719 mmHg 79%

Tomorrow, 7 July, Tuesday

Time Temperature Precipitation Wind Pressure Humidity
00:00 +27°C° 0 mm 4 mps 719 mmHg 80%
01:00 +27°C° 0 mm 4 mps 718 mmHg 81%
02:00 +26°C° 0 mm 4 mps 718 mmHg 82%
03:00 +26°C° 0 mm 3 mps 718 mmHg 83%
04:00 +26°C° 0 mm 3 mps 718 mmHg 84%
05:00 +26°C° 0 mm 3 mps 718 mmHg 85%
06:00 +27°C° 0 mm 4 mps 719 mmHg 81%
07:00 +27°C° 0 mm 5 mps 719 mmHg 77%
08:00 +28°C° 0 mm 6 mps 720 mmHg 73%
09:00 +29°C° 0 mm 6 mps 720 mmHg 69%
10:00 +30°C° 0 mm 6 mps 720 mmHg 65%
11:00 +32°C° 0 mm 6 mps 721 mmHg 61%
12:00 +33°C° 0 mm 6 mps 720 mmHg 58%
13:00 +34°C° 0 mm 6 mps 719 mmHg 55%
14:00 +34°C° 0 mm 5 mps 719 mmHg 52%
15:00 +34°C° 0.3 mm 5 mps 719 mmHg 54%
16:00 +34°C° 0.3 mm 4 mps 718 mmHg 56%
17:00 +33°C° 0.3 mm 4 mps 718 mmHg 58%
18:00 +32°C° 0.5 mm 4 mps 719 mmHg 62%
19:00 +30°C° 0.5 mm 4 mps 720 mmHg 65%
20:00 +29°C° 0.5 mm 4 mps 720 mmHg 68%
21:00 +29°C° 0.1 mm 4 mps 720 mmHg 70%
22:00 +29°C° 0.1 mm 3 mps 721 mmHg 73%
23:00 +28°C° 0.1 mm 3 mps 721 mmHg 75%

Day after tomorrow, 8 July, Wednesday

Time Temperature Precipitation Wind Pressure Humidity
00:00 +28°C° 0 mm 3 mps 721 mmHg 77%
01:00 +27°C° 0 mm 3 mps 720 mmHg 78%
02:00 +27°C° 0 mm 4 mps 720 mmHg 80%
03:00 +27°C° 0 mm 3 mps 720 mmHg 81%
04:00 +26°C° 0 mm 3 mps 720 mmHg 83%
05:00 +26°C° 0 mm 3 mps 720 mmHg 84%
06:00 +27°C° 0 mm 3 mps 720 mmHg 80%
07:00 +28°C° 0 mm 4 mps 721 mmHg 76%
08:00 +28°C° 0 mm 4 mps 721 mmHg 72%
09:00 +30°C° 0 mm 4 mps 721 mmHg 67%
10:00 +32°C° 0 mm 4 mps 721 mmHg 62%
11:00 +33°C° 0 mm 4 mps 721 mmHg 57%
12:00 +34°C° 0 mm 4 mps 721 mmHg 55%
13:00 +34°C° 0 mm 4 mps 720 mmHg 54%
14:00 +35°C° 0 mm 4 mps 720 mmHg 52%
15:00 +35°C° 0 mm 4 mps 719 mmHg 53%
16:00 +34°C° 0 mm 3 mps 719 mmHg 54%
17:00 +34°C° 0 mm 3 mps 719 mmHg 55%
18:00 +32°C° 0 mm 2 mps 719 mmHg 57%
19:00 +32°C° 0 mm 2 mps 720 mmHg 60%
20:00 +31°C° 0 mm 1 mps 720 mmHg 62%
21:00 +31°C° 0.4 mm 2 mps 721 mmHg 64%
22:00 +30°C° 0.4 mm 3 mps 721 mmHg 66%
23:00 +30°C° 0.4 mm 3 mps 721 mmHg 68%

9 July, Thursday

Time Temperature Precipitation Wind Pressure Humidity
00:00 +29°C° 0.9 mm 3 mps 721 mmHg 71%
01:00 +28°C° 0.9 mm 4 mps 720 mmHg 74%
02:00 +28°C° 0.9 mm 4 mps 720 mmHg 77%
03:00 +28°C° 0 mm 3 mps 720 mmHg 79%
04:00 +27°C° 0 mm 3 mps 719 mmHg 81%
05:00 +27°C° 0 mm 3 mps 719 mmHg 83%
06:00 +28°C° 0 mm 3 mps 720 mmHg 80%
07:00 +28°C° 0 mm 4 mps 720 mmHg 77%
08:00 +29°C° 0 mm 4 mps 721 mmHg 74%
09:00 +30°C° 0.3 mm 4 mps 721 mmHg 70%
10:00 +32°C° 0.3 mm 5 mps 721 mmHg 66%
11:00 +33°C° 0.3 mm 5 mps 720 mmHg 63%
12:00 +33°C° 1.2 mm 5 mps 720 mmHg 61%
13:00 +34°C° 1.2 mm 5 mps 719 mmHg 59%
14:00 +34°C° 1.2 mm 5 mps 718 mmHg 58%
15:00 +34°C° 0.2 mm 4 mps 718 mmHg 59%
16:00 +33°C° 0.2 mm 3 mps 718 mmHg 61%
17:00 +33°C° 0.2 mm 3 mps 718 mmHg 63%
18:00 +31°C° 0 mm 2 mps 718 mmHg 65%
19:00 +31°C° 0 mm 2 mps 719 mmHg 68%
20:00 +30°C° 0 mm 1 mps 719 mmHg 70%
21:00 +30°C° 0.1 mm 2 mps 719 mmHg 71%
22:00 +30°C° 0.1 mm 2 mps 719 mmHg 72%
23:00 +29°C° 0.1 mm 2 mps 719 mmHg 73%

10 July, Friday

Time Temperature Precipitation Wind Pressure Humidity
00:00 +29°C° 2.4 mm 3 mps 719 mmHg 74%
01:00 +28°C° 2.4 mm 4 mps 718 mmHg 75%
02:00 +28°C° 2.4 mm 6 mps 718 mmHg 76%
03:00 +27°C° 0.9 mm 5 mps 718 mmHg 78%
04:00 +27°C° 0.9 mm 5 mps 718 mmHg 80%
05:00 +27°C° 0.9 mm 5 mps 718 mmHg 82%
06:00 +27°C° 0.2 mm 5 mps 719 mmHg 79%
07:00 +28°C° 0.2 mm 5 mps 719 mmHg 76%
08:00 +29°C° 0.2 mm 6 mps 720 mmHg 74%
09:00 +30°C° 0.2 mm 6 mps 720 mmHg 70%
10:00 +32°C° 0.2 mm 6 mps 720 mmHg 66%
11:00 +33°C° 0.2 mm 6 mps 720 mmHg 62%
12:00 +33°C° 0.6 mm 6 mps 719 mmHg 61%
13:00 +33°C° 0.6 mm 6 mps 719 mmHg 60%
14:00 +33°C° 0.6 mm 7 mps 718 mmHg 60%
15:00 +33°C° 0.3 mm 6 mps 718 mmHg 61%
16:00 +33°C° 0.3 mm 6 mps 718 mmHg 62%
17:00 +32°C° 0.3 mm 6 mps 718 mmHg 63%
18:00 +32°C° 0 mm 5 mps 718 mmHg 66%
19:00 +30°C° 0 mm 4 mps 719 mmHg 70%
20:00 +29°C° 0 mm 3 mps 719 mmHg 73%
21:00 +28°C° 0.4 mm 4 mps 719 mmHg 76%
22:00 +28°C° 0.4 mm 4 mps 719 mmHg 79%
23:00 +27°C° 0.4 mm 4 mps 719 mmHg 82%

11 July, Saturday

Time Temperature Precipitation Wind Pressure Humidity
00:00 +27°C° 0.1 mm 4 mps 719 mmHg 81%
01:00 +27°C° 0.1 mm 4 mps 718 mmHg 81%
02:00 +27°C° 0.1 mm 4 mps 718 mmHg 81%
03:00 +27°C° 0 mm 4 mps 718 mmHg 82%
04:00 +26°C° 0 mm 4 mps 718 mmHg 83%
05:00 +26°C° 0 mm 4 mps 718 mmHg 83%
06:00 +27°C° 0 mm 5 mps 719 mmHg 80%
07:00 +27°C° 0 mm 5 mps 719 mmHg 77%
08:00 +28°C° 0 mm 6 mps 719 mmHg 74%
09:00 +29°C° 0 mm 5 mps 719 mmHg 70%
10:00 +30°C° 0 mm 5 mps 719 mmHg 66%
11:00 +32°C° 0 mm 5 mps 719 mmHg 62%
12:00 +33°C° 0 mm 5 mps 719 mmHg 59%
13:00 +34°C° 0 mm 5 mps 719 mmHg 57%
14:00 +34°C° 0 mm 5 mps 718 mmHg 54%
15:00 +34°C° 0.4 mm 5 mps 718 mmHg 56%
16:00 +33°C° 0.4 mm 5 mps 718 mmHg 58%
17:00 +33°C° 0.4 mm 5 mps 718 mmHg 59%
18:00 +32°C° 0.7 mm 4 mps 718 mmHg 63%
19:00 +30°C° 0.7 mm 4 mps 719 mmHg 67%
20:00 +30°C° 0.7 mm 3 mps 719 mmHg 70%
21:00 +29°C° 1.1 mm 4 mps 720 mmHg 73%
22:00 +29°C° 1.1 mm 4 mps 720 mmHg 75%
23:00 +28°C° 1.1 mm 4 mps 720 mmHg 77%
Show more